Time,TemperatureF,DewpointF,PressureIn,WindDirection,WindDirectionDegrees,WindSpeedMPH,WindSpeedGustMPH,Humidity,HourlyPrecipIn,Conditions,Clouds,dailyrainin,SolarRadiationWatts/m^2,SoftwareType,DateUTC
2013-01-02 00:04:00,35.4,30.1,30.21,NNW,329,0.0,0.0,81,0.00,,,0.00,0,Wunderground v.1.15,2013-01-02 08:04:00,
2013-01-02 00:10:00,35.1,30.2,30.21,NNW,329,0.0,0.0,82,0.00,,,0.00,0,Wunderground v.1.15,2013-01-02 08:10:00,
2013-01-02 00:16:00,34.8,30.2,30.20,NNW,329,0.0,0.0,83,0.00,,,0.00,0,Wunderground v.1.15,2013-01-02 08:16:00,
2013-01-02 00:22:00,34.5,29.9,30.21,NNW,329,0.0,0.0,83,0.00,,,0.00,0,Wunderground v.1.15,2013-01-02 08:22:00,
2013-01-02 00:28:00,34.1,29.8,30.21,NNW,329,0.0,0.0,84,0.00,,,0.00,0,Wunderground v.1.15,2013-01-02 08:28:00,
2013-01-02 00:34:00,33.9,29.6,30.20,NNW,329,0.0,0.0,84,0.00,,,0.00,0,Wunderground v.1.15,2013-01-02 08:34:00,
2013-01-02 00:40:00,33.8,29.8,30.20,NNW,329,0.0,0.0,85,0.00,,,0.00,0,Wunderground v.1.15,2013-01-02 08:40:00,
2013-01-02 00:46:00,33.5,29.5,30.20,NNW,329,0.0,0.0,85,0.00,,,0.00,0,Wunderground v.1.15,2013-01-02 08:46:00,
2013-01-02 00:52:00,33.2,29.2,30.20,NNW,329,0.0,0.0,85,0.00,,,0.00,0,Wunderground v.1.15,2013-01-02 08:52:00,
2013-01-02 00:58:00,33.0,29.3,30.20,NNW,329,0.0,0.0,86,0.00,,,0.00,0,Wunderground v.1.15,2013-01-02 08:58:00,
2013-01-02 01:04:00,32.8,29.1,30.20,NNW,329,0.0,0.0,86,0.00,,,0.00,0,Wunderground v.1.15,2013-01-02 09:04:00,
2013-01-02 01:10:00,32.6,28.9,30.20,NNW,329,0.0,0.0,86,0.00,,,0.00,0,Wunderground v.1.15,2013-01-02 09:10:00,
2013-01-02 01:16:00,32.5,28.8,30.20,NNW,329,0.0,0.0,86,0.00,,,0.00,0,Wunderground v.1.15,2013-01-02 09:16:00,
2013-01-02 01:22:00,32.6,29.2,30.20,NNW,329,0.0,0.0,87,0.00,,,0.00,0,Wunderground v.1.15,2013-01-02 09:22:00,
2013-01-02 01:28:00,32.7,29.3,30.20,NNW,329,0.0,0.0,87,0.00,,,0.00,0,Wunderground v.1.15,2013-01-02 09:28:00,
2013-01-02 01:34:00,33.0,29.6,30.20,NNW,329,0.0,0.0,87,0.00,,,0.00,0,Wunderground v.1.15,2013-01-02 09:34:00,
2013-01-02 01:40:00,33.0,29.6,30.20,NNW,329,0.0,0.0,87,0.00,,,0.00,0,Wunderground v.1.15,2013-01-02 09:40:00,
2013-01-02 01:46:00,32.9,29.5,30.20,NNW,329,0.0,0.0,87,0.00,,,0.00,0,Wunderground v.1.15,2013-01-02 09:46:00,
2013-01-02 01:52:00,32.7,29.3,30.20,NNW,329,0.0,0.0,87,0.00,,,0.00,0,Wunderground v.1.15,2013-01-02 09:52:00,
2013-01-02 01:58:00,32.6,29.2,30.20,NNW,329,0.0,0.0,87,0.00,,,0.00,0,Wunderground v.1.15,2013-01-02 09:58:00,
2013-01-02 02:04:00,32.6,29.2,30.20,NNW,329,0.0,0.0,87,0.00,,,0.00,0,Wunderground v.1.15,2013-01-02 10:04:00,
2013-01-02 02:10:00,32.5,29.1,30.20,NNW,329,0.0,0.0,87,0.00,,,0.00,0,Wunderground v.1.15,2013-01-02 10:10:00,
2013-01-02 02:16:00,32.4,29.0,30.20,NNW,329,0.0,0.0,87,0.00,,,0.00,0,Wunderground v.1.15,2013-01-02 10:16:00,
2013-01-02 02:22:00,32.2,29.0,30.21,NNW,329,0.0,0.0,88,0.00,,,0.00,0,Wunderground v.1.15,2013-01-02 10:22:00,
2013-01-02 02:28:00,32.0,28.8,30.21,NNW,329,0.0,0.0,88,0.00,,,0.00,0,Wunderground v.1.15,2013-01-02 10:28:00,
2013-01-02 02:34:00,31.9,28.8,30.20,NNW,329,0.0,0.0,88,0.00,,,0.00,0,Wunderground v.1.15,2013-01-02 10:34:00,
2013-01-02 02:40:00,31.8,28.7,30.20,NNW,329,0.0,0.0,88,0.00,,,0.00,0,Wunderground v.1.15,2013-01-02 10:40:00,
2013-01-02 02:46:00,31.7,28.6,30.20,NNW,329,0.0,0.0,88,0.00,,,0.00,0,Wunderground v.1.15,2013-01-02 10:46:00,
2013-01-02 02:52:00,31.6,28.5,30.20,NNW,329,0.0,0.0,88,0.00,,,0.00,0,Wunderground v.1.15,2013-01-02 10:52:00,
2013-01-02 02:58:00,31.4,28.3,30.20,NNW,329,0.0,0.0,88,0.00,,,0.00,0,Wunderground v.1.15,2013-01-02 10:58:00,
2013-01-02 03:04:00,31.2,28.1,30.20,NNW,329,0.0,0.0,88,0.00,,,0.00,0,Wunderground v.1.15,2013-01-02 11:04:00,
2013-01-02 03:10:00,31.1,28.0,30.19,NNW,329,0.0,0.0,88,0.00,,,0.00,0,Wunderground v.1.15,2013-01-02 11:10:00,
2013-01-02 03:16:00,31.0,27.9,30.19,NNW,329,0.0,0.0,88,0.00,,,0.00,0,Wunderground v.1.15,2013-01-02 11:16:00,
2013-01-02 03:22:00,31.0,27.9,30.19,NNW,329,0.0,0.0,88,0.00,,,0.00,0,Wunderground v.1.15,2013-01-02 11:22:00,
2013-01-02 03:28:00,31.1,28.0,30.19,NNW,329,0.0,0.0,88,0.00,,,0.00,0,Wunderground v.1.15,2013-01-02 11:28:00,
2013-01-02 03:34:00,31.2,28.1,30.19,NNW,329,0.0,0.0,88,0.00,,,0.00,0,Wunderground v.1.15,2013-01-02 11:34:00,
2013-01-02 03:40:00,31.3,28.4,30.19,NNW,329,0.0,0.0,89,0.00,,,0.00,0,Wunderground v.1.15,2013-01-02 11:40:00,
2013-01-02 03:46:00,31.4,28.5,30.18,NNW,329,0.0,0.0,89,0.00,,,0.00,0,Wunderground v.1.15,2013-01-02 11:46:00,
2013-01-02 03:52:00,31.5,28.6,30.18,NNW,329,0.0,0.0,89,0.00,,,0.00,0,Wunderground v.1.15,2013-01-02 11:52:00,
2013-01-02 03:58:00,31.6,28.7,30.18,NNW,329,0.0,0.0,89,0.00,,,0.00,0,Wunderground v.1.15,2013-01-02 11:58:00,
2013-01-02 04:04:00,31.6,28.5,30.18,NNW,329,0.0,0.0,88,0.00,,,0.00,0,Wunderground v.1.15,2013-01-02 12:04:00,
2013-01-02 04:10:00,31.7,28.6,30.18,NNW,329,0.0,0.0,88,0.00,,,0.00,0,Wunderground v.1.15,2013-01-02 12:10:00,
2013-01-02 04:16:00,31.8,28.7,30.18,NNW,329,0.0,0.0,88,0.00,,,0.00,0,Wunderground v.1.15,2013-01-02 12:16:00,
2013-01-02 04:22:00,31.9,28.8,30.18,NNW,329,0.0,0.0,88,0.00,,,0.00,0,Wunderground v.1.15,2013-01-02 12:22:00,
2013-01-02 04:28:00,32.0,28.8,30.18,NNW,329,0.0,0.0,88,0.00,,,0.00,0,Wunderground v.1.15,2013-01-02 12:28:00,
2013-01-02 04:34:00,32.0,28.8,30.18,NNW,329,0.0,0.0,88,0.00,,,0.00,0,Wunderground v.1.15,2013-01-02 12:34:00,
2013-01-02 04:40:00,31.9,28.8,30.18,NNW,329,0.0,0.0,88,0.00,,,0.00,0,Wunderground v.1.15,2013-01-02 12:40:00,
2013-01-02 04:46:00,31.7,28.3,30.17,NNW,329,0.0,0.0,87,0.00,,,0.00,0,Wunderground v.1.15,2013-01-02 12:46:00,
2013-01-02 04:52:00,31.5,28.1,30.17,NNW,329,0.0,0.0,87,0.00,,,0.00,0,Wunderground v.1.15,2013-01-02 12:52:00,
2013-01-02 04:58:00,31.2,27.8,30.17,NNW,329,0.0,0.0,87,0.00,,,0.00,0,Wunderground v.1.15,2013-01-02 12:58:00,
2013-01-02 05:04:00,31.0,27.6,30.17,NNW,329,0.0,0.0,87,0.00,,,0.00,0,Wunderground v.1.15,2013-01-02 13:04:00,
2013-01-02 05:10:00,30.8,27.4,30.17,NNW,329,0.0,0.0,87,0.00,,,0.00,0,Wunderground v.1.15,2013-01-02 13:10:00,
2013-01-02 05:16:00,30.7,27.6,30.17,NNW,329,0.0,0.0,88,0.00,,,0.00,0,Wunderground v.1.15,2013-01-02 13:16:00,
2013-01-02 05:22:00,30.4,27.3,30.17,NNW,329,0.0,0.0,88,0.00,,,0.00,0,Wunderground v.1.15,2013-01-02 13:22:00,
2013-01-02 05:28:00,30.2,27.1,30.17,NNW,329,0.0,0.0,88,0.00,,,0.00,0,Wunderground v.1.15,2013-01-02 13:28:00,
2013-01-02 05:34:00,30.0,26.9,30.17,NNW,329,0.0,0.0,88,0.00,,,0.00,0,Wunderground v.1.15,2013-01-02 13:34:00,
2013-01-02 05:40:00,29.8,26.7,30.16,NNW,329,0.0,0.0,88,0.00,,,0.00,0,Wunderground v.1.15,2013-01-02 13:40:00,
2013-01-02 05:46:00,29.7,26.6,30.16,NNW,329,0.0,0.0,88,0.00,,,0.00,0,Wunderground v.1.15,2013-01-02 13:46:00,
2013-01-02 05:52:00,29.8,26.7,30.16,NNW,329,0.0,0.0,88,0.00,,,0.00,0,Wunderground v.1.15,2013-01-02 13:52:00,
2013-01-02 05:58:00,29.8,26.7,30.16,NNW,329,0.0,0.0,88,0.00,,,0.00,0,Wunderground v.1.15,2013-01-02 13:58:00,
2013-01-02 06:04:00,29.8,27.0,30.16,NNW,329,0.0,0.0,89,0.00,,,0.00,0,Wunderground v.1.15,2013-01-02 14:04:00,
2013-01-02 06:10:00,29.9,27.1,30.17,NNW,329,0.0,0.0,89,0.00,,,0.00,0,Wunderground v.1.15,2013-01-02 14:10:00,
2013-01-02 06:16:00,30.0,27.2,30.17,NNW,329,0.0,0.0,89,0.00,,,0.00,0,Wunderground v.1.15,2013-01-02 14:16:00,
2013-01-02 06:22:00,30.1,27.3,30.17,NNW,329,0.0,0.0,89,0.00,,,0.00,0,Wunderground v.1.15,2013-01-02 14:22:00,
2013-01-02 06:28:00,30.1,27.3,30.17,NNW,329,0.0,0.0,89,0.00,,,0.00,0,Wunderground v.1.15,2013-01-02 14:28:00,
2013-01-02 06:34:00,30.1,27.3,30.17,NNW,329,0.0,0.0,89,0.00,,,0.00,0,Wunderground v.1.15,2013-01-02 14:34:00,
2013-01-02 06:40:00,30.0,27.2,30.17,NNW,329,0.0,0.0,89,0.00,,,0.00,0,Wunderground v.1.15,2013-01-02 14:40:00,
2013-01-02 06:46:00,30.0,27.2,30.17,NNW,329,0.0,0.0,89,0.00,,,0.00,0,Wunderground v.1.15,2013-01-02 14:46:00,
2013-01-02 06:52:00,29.8,27.0,30.17,NNW,329,0.0,0.0,89,0.00,,,0.00,0,Wunderground v.1.15,2013-01-02 14:52:00,
2013-01-02 06:58:00,29.8,27.0,30.17,NNW,329,0.0,0.0,89,0.00,,,0.00,0,Wunderground v.1.15,2013-01-02 14:58:00,
2013-01-02 07:04:00,29.7,27.1,30.17,NNW,329,0.0,0.0,90,0.00,,,0.00,0,Wunderground v.1.15,2013-01-02 15:04:00,
2013-01-02 07:10:00,29.6,27.0,30.17,NNW,329,0.0,0.0,90,0.00,,,0.00,0,Wunderground v.1.15,2013-01-02 15:10:00,
2013-01-02 07:16:00,29.6,27.0,30.18,NNW,329,0.0,0.0,90,0.00,,,0.00,0,Wunderground v.1.15,2013-01-02 15:16:00,
2013-01-02 07:22:00,29.6,27.0,30.18,NNW,329,0.0,0.0,90,0.00,,,0.00,0,Wunderground v.1.15,2013-01-02 15:22:00,
2013-01-02 07:28:00,29.6,27.0,30.18,NNW,329,0.0,0.0,90,0.00,,,0.00,7,Wunderground v.1.15,2013-01-02 15:28:00,
2013-01-02 07:34:00,29.6,27.0,30.18,NNW,329,0.0,0.0,90,0.00,,,0.00,9,Wunderground v.1.15,2013-01-02 15:34:00,
2013-01-02 07:40:00,29.5,26.9,30.18,NNW,329,0.0,0.0,90,0.00,,,0.00,12,Wunderground v.1.15,2013-01-02 15:40:00,
2013-01-02 07:46:00,29.6,27.0,30.18,NNW,329,0.0,0.0,90,0.00,,,0.00,14,Wunderground v.1.15,2013-01-02 15:46:00,
2013-01-02 07:52:00,29.9,27.3,30.18,NNW,329,0.0,0.0,90,0.00,,,0.00,16,Wunderground v.1.15,2013-01-02 15:52:00,
2013-01-02 07:58:00,30.3,27.7,30.18,NNW,329,0.0,0.0,90,0.00,,,0.00,19,Wunderground v.1.15,2013-01-02 15:58:00,
2013-01-02 08:04:00,30.7,28.1,30.18,NNW,329,0.0,0.0,90,0.00,,,0.00,21,Wunderground v.1.15,2013-01-02 16:04:00,
2013-01-02 08:10:00,31.3,28.7,30.18,NNW,329,0.0,0.0,90,0.00,,,0.00,23,Wunderground v.1.15,2013-01-02 16:10:00,
2013-01-02 08:16:00,31.8,29.2,30.18,NNW,329,0.0,0.0,90,0.00,,,0.00,23,Wunderground v.1.15,2013-01-02 16:16:00,
2013-01-02 08:22:00,32.2,29.6,30.18,NNW,333,0.0,0.0,90,0.00,,,0.00,25,Wunderground v.1.15,2013-01-02 16:22:00,
2013-01-02 08:28:00,32.6,30.3,30.18,NNW,333,0.0,0.0,91,0.00,,,0.00,26,Wunderground v.1.15,2013-01-02 16:28:00,
2013-01-02 08:34:00,33.0,30.4,30.18,NNW,333,0.0,0.0,90,0.00,,,0.00,26,Wunderground v.1.15,2013-01-02 16:34:00,
2013-01-02 08:40:00,33.5,30.9,30.19,NNW,333,0.0,0.0,90,0.00,,,0.00,28,Wunderground v.1.15,2013-01-02 16:40:00,
2013-01-02 08:46:00,33.9,31.6,30.19,NNW,333,0.0,0.0,91,0.00,,,0.00,28,Wunderground v.1.15,2013-01-02 16:46:00,
2013-01-02 08:52:00,34.7,32.3,30.19,North,349,0.0,0.0,91,0.00,,,0.00,30,Wunderground v.1.15,2013-01-02 16:52:00,
2013-01-02 08:58:00,35.8,33.2,30.19,North,360,0.0,0.0,90,0.00,,,0.00,30,Wunderground v.1.15,2013-01-02 16:58:00,
2013-01-02 09:04:00,36.6,33.9,30.19,North,5,0.0,1.0,90,0.00,,,0.00,30,Wunderground v.1.15,2013-01-02 17:04:00,
2013-01-02 09:10:00,37.4,34.5,30.20,NNE,13,1.0,1.0,89,0.00,,,0.00,30,Wunderground v.1.15,2013-01-02 17:10:00,
2013-01-02 09:16:00,37.9,34.4,30.20,NNE,18,1.0,1.0,87,0.00,,,0.00,32,Wunderground v.1.15,2013-01-02 17:16:00,
2013-01-02 09:22:00,38.5,34.4,30.20,NE,35,1.0,1.0,85,0.00,,,0.00,32,Wunderground v.1.15,2013-01-02 17:22:00,
2013-01-02 09:28:00,39.1,33.5,30.20,NNE,27,2.0,6.0,80,0.00,,,0.00,114,Wunderground v.1.15,2013-01-02 17:28:00,
2013-01-02 09:34:00,39.5,33.2,30.21,NE,34,2.0,2.0,78,0.00,,,0.00,172,Wunderground v.1.15,2013-01-02 17:34:00,
2013-01-02 09:40:00,40.0,33.4,30.21,East,96,1.0,1.0,77,0.00,,,0.00,279,Wunderground v.1.15,2013-01-02 17:40:00,
2013-01-02 09:46:00,40.6,33.6,30.21,NE,35,1.0,5.0,76,0.00,,,0.00,325,Wunderground v.1.15,2013-01-02 17:46:00,
2013-01-02 09:52:00,41.1,33.8,30.21,NNE,32,2.0,2.0,75,0.00,,,0.00,345,Wunderground v.1.15,2013-01-02 17:52:00,
2013-01-02 09:58:00,41.4,33.7,30.21,NNE,32,1.0,2.0,74,0.00,,,0.00,360,Wunderground v.1.15,2013-01-02 17:58:00,
2013-01-02 10:04:00,42.0,34.0,30.21,NNE,32,0.0,4.0,73,0.00,,,0.00,381,Wunderground v.1.15,2013-01-02 18:04:00,
2013-01-02 10:10:00,42.7,33.9,30.21,NE,41,1.0,1.0,71,0.00,,,0.00,397,Wunderground v.1.15,2013-01-02 18:10:00,
2013-01-02 10:16:00,43.2,34.8,30.22,NE,40,1.0,1.0,72,0.00,,,0.00,415,Wunderground v.1.15,2013-01-02 18:16:00,
2013-01-02 10:22:00,43.6,34.8,30.22,NE,40,0.0,0.0,71,0.00,,,0.00,425,Wunderground v.1.15,2013-01-02 18:22:00,
2013-01-02 10:28:00,44.5,35.3,30.22,NE,46,1.0,2.0,70,0.00,,,0.00,436,Wunderground v.1.15,2013-01-02 18:28:00,
2013-01-02 10:34:00,45.2,36.0,30.22,NE,46,1.0,1.0,70,0.00,,,0.00,446,Wunderground v.1.15,2013-01-02 18:34:00,
2013-01-02 10:40:00,45.6,35.6,30.22,NE,46,0.0,0.0,68,0.00,,,0.00,455,Wunderground v.1.15,2013-01-02 18:40:00,
2013-01-02 10:46:00,45.8,35.8,30.22,NE,44,0.0,0.0,68,0.00,,,0.00,464,Wunderground v.1.15,2013-01-02 18:46:00,
2013-01-02 10:52:00,46.1,36.1,30.22,NE,44,0.0,0.0,68,0.00,,,0.00,475,Wunderground v.1.15,2013-01-02 18:52:00,
2013-01-02 10:58:00,46.8,36.8,30.21,NE,44,0.0,0.0,68,0.00,,,0.00,482,Wunderground v.1.15,2013-01-02 18:58:00,
2013-01-02 11:04:00,47.5,36.3,30.21,NE,44,0.0,7.0,65,0.00,,,0.00,490,Wunderground v.1.15,2013-01-02 19:04:00,
2013-01-02 11:10:00,48.1,36.5,30.20,NE,44,0.0,0.0,64,0.00,,,0.00,499,Wunderground v.1.15,2013-01-02 19:10:00,
2013-01-02 11:16:00,49.0,37.7,30.20,NE,44,0.0,0.0,65,0.00,,,0.00,506,Wunderground v.1.15,2013-01-02 19:16:00,
2013-01-02 11:22:00,49.2,37.1,30.20,NNW,343,0.0,0.0,63,0.00,,,0.00,512,Wunderground v.1.15,2013-01-02 19:22:00,
2013-01-02 11:28:00,48.8,37.2,30.19,NNW,329,0.0,0.0,64,0.00,,,0.00,520,Wunderground v.1.15,2013-01-02 19:28:00,
2013-01-02 11:34:00,48.8,37.2,30.19,NW,325,0.0,0.0,64,0.00,,,0.00,522,Wunderground v.1.15,2013-01-02 19:34:00,
2013-01-02 11:40:00,48.7,37.5,30.19,NW,325,0.0,0.0,65,0.00,,,0.00,526,Wunderground v.1.15,2013-01-02 19:40:00,
2013-01-02 11:46:00,48.4,37.2,30.19,NW,317,0.0,0.0,65,0.00,,,0.00,531,Wunderground v.1.15,2013-01-02 19:46:00,
2013-01-02 11:52:00,48.5,37.7,30.19,NW,315,0.0,0.0,66,0.00,,,0.00,533,Wunderground v.1.15,2013-01-02 19:52:00,
2013-01-02 11:58:00,48.9,38.0,30.18,NW,313,0.0,0.0,66,0.00,,,0.00,536,Wunderground v.1.15,2013-01-02 19:58:00,
2013-01-02 12:04:00,49.8,38.5,30.18,NW,313,0.0,5.0,65,0.00,,,0.00,536,Wunderground v.1.15,2013-01-02 20:04:00,
2013-01-02 12:10:00,50.3,38.6,30.18,NW,311,0.0,0.0,64,0.00,,,0.00,540,Wunderground v.1.15,2013-01-02 20:10:00,
2013-01-02 12:16:00,50.4,37.9,30.17,NW,311,0.0,0.0,62,0.00,,,0.00,540,Wunderground v.1.15,2013-01-02 20:16:00,
2013-01-02 12:22:00,50.3,37.8,30.17,WNW,301,0.0,0.0,62,0.00,,,0.00,540,Wunderground v.1.15,2013-01-02 20:22:00,
2013-01-02 12:28:00,50.5,38.0,30.16,WNW,300,0.0,0.0,62,0.00,,,0.00,538,Wunderground v.1.15,2013-01-02 20:28:00,
2013-01-02 12:34:00,50.8,37.4,30.16,WNW,300,0.0,0.0,60,0.00,,,0.00,540,Wunderground v.1.15,2013-01-02 20:34:00,
2013-01-02 12:40:00,51.4,38.0,30.15,WNW,300,0.0,0.0,60,0.00,,,0.00,540,Wunderground v.1.15,2013-01-02 20:40:00,
2013-01-02 12:46:00,52.1,38.2,30.15,WNW,300,0.0,0.0,59,0.00,,,0.00,536,Wunderground v.1.15,2013-01-02 20:46:00,
2013-01-02 12:52:00,53.1,39.1,30.15,WNW,300,0.0,0.0,59,0.00,,,0.00,533,Wunderground v.1.15,2013-01-02 20:52:00,
2013-01-02 12:58:00,53.1,38.3,30.15,WNW,300,0.0,0.0,57,0.00,,,0.00,529,Wunderground v.1.15,2013-01-02 20:58:00,
2013-01-02 13:04:00,53.0,39.0,30.15,WNW,285,0.0,2.0,59,0.00,,,0.00,526,Wunderground v.1.15,2013-01-02 21:04:00,
2013-01-02 13:10:00,52.9,39.0,30.15,WNW,285,0.0,0.0,59,0.00,,,0.00,522,Wunderground v.1.15,2013-01-02 21:10:00,
2013-01-02 13:16:00,52.9,38.5,30.14,WNW,285,0.0,0.0,58,0.00,,,0.00,515,Wunderground v.1.15,2013-01-02 21:16:00,
2013-01-02 13:22:00,53.4,39.0,30.14,WNW,285,0.0,0.0,58,0.00,,,0.00,508,Wunderground v.1.15,2013-01-02 21:22:00,
2013-01-02 13:28:00,54.0,39.5,30.14,WNW,285,0.0,0.0,58,0.00,,,0.00,501,Wunderground v.1.15,2013-01-02 21:28:00,
2013-01-02 13:34:00,54.3,37.5,30.14,WNW,295,0.0,0.0,53,0.00,,,0.00,494,Wunderground v.1.15,2013-01-02 21:34:00,
2013-01-02 13:40:00,54.6,35.8,30.14,NNW,331,1.0,1.0,49,0.00,,,0.00,489,Wunderground v.1.15,2013-01-02 21:40:00,
2013-01-02 13:46:00,54.8,36.5,30.14,NNW,340,0.0,1.0,50,0.00,,,0.00,480,Wunderground v.1.15,2013-01-02 21:46:00,
2013-01-02 13:52:00,54.6,35.3,30.14,NNW,340,0.0,0.0,48,0.00,,,0.00,473,Wunderground v.1.15,2013-01-02 21:52:00,
2013-01-02 13:58:00,53.9,36.2,30.13,NNW,338,0.0,0.0,51,0.00,,,0.00,462,Wunderground v.1.15,2013-01-02 21:58:00,
2013-01-02 14:04:00,54.3,36.0,30.13,NNW,338,0.0,2.0,50,0.00,,,0.00,452,Wunderground v.1.15,2013-01-02 22:04:00,
2013-01-02 14:10:00,54.4,34.6,30.13,NNW,338,0.0,0.0,47,0.00,,,0.00,443,Wunderground v.1.15,2013-01-02 22:10:00,
2013-01-02 14:16:00,54.5,35.2,30.13,NNW,342,0.0,0.0,48,0.00,,,0.00,434,Wunderground v.1.15,2013-01-02 22:16:00,
2013-01-02 14:22:00,54.6,35.8,30.13,NNW,344,0.0,0.0,49,0.00,,,0.00,420,Wunderground v.1.15,2013-01-02 22:22:00,
2013-01-02 14:28:00,55.1,36.3,30.13,NNW,344,0.0,0.0,49,0.00,,,0.00,408,Wunderground v.1.15,2013-01-02 22:28:00,
2013-01-02 14:34:00,55.4,36.0,30.13,NNW,344,0.0,0.0,48,0.00,,,0.00,396,Wunderground v.1.15,2013-01-02 22:34:00,
2013-01-02 14:40:00,55.4,35.5,30.13,NNW,345,0.0,0.0,47,0.00,,,0.00,381,Wunderground v.1.15,2013-01-02 22:40:00,
2013-01-02 14:46:00,55.5,35.6,30.13,NNE,20,0.0,0.0,47,0.00,,,0.00,367,Wunderground v.1.15,2013-01-02 22:46:00,
2013-01-02 14:52:00,55.8,35.9,30.13,NNE,20,0.0,0.0,47,0.00,,,0.00,355,Wunderground v.1.15,2013-01-02 22:52:00,
2013-01-02 14:58:00,56.6,36.6,30.13,NNE,20,0.0,0.0,47,0.00,,,0.00,341,Wunderground v.1.15,2013-01-02 22:58:00,
2013-01-02 15:04:00,56.3,36.8,30.12,NNE,20,0.0,4.0,48,0.00,,,0.00,327,Wunderground v.1.15,2013-01-02 23:04:00,
2013-01-02 15:10:00,55.9,37.0,30.12,NNE,20,0.0,0.0,49,0.00,,,0.00,315,Wunderground v.1.15,2013-01-02 23:10:00,
2013-01-02 15:16:00,55.3,36.5,30.12,NNE,20,0.0,0.0,49,0.00,,,0.00,278,Wunderground v.1.15,2013-01-02 23:16:00,
2013-01-02 15:22:00,54.2,36.5,30.12,NNE,20,0.0,0.0,51,0.00,,,0.00,246,Wunderground v.1.15,2013-01-02 23:22:00,
2013-01-02 15:28:00,53.9,36.2,30.11,NNE,20,0.0,0.0,51,0.00,,,0.00,163,Wunderground v.1.15,2013-01-02 23:28:00,
2013-01-02 15:34:00,53.7,37.0,30.11,NNE,20,0.0,0.0,53,0.00,,,0.00,153,Wunderground v.1.15,2013-01-02 23:34:00,
2013-01-02 15:40:00,54.1,37.3,30.11,North,11,0.0,0.0,53,0.00,,,0.00,214,Wunderground v.1.15,2013-01-02 23:40:00,
2013-01-02 15:46:00,54.5,37.2,30.11,North,360,0.0,0.0,52,0.00,,,0.00,193,Wunderground v.1.15,2013-01-02 23:46:00,
2013-01-02 15:52:00,54.6,37.3,30.11,North,360,0.0,0.0,52,0.00,,,0.00,172,Wunderground v.1.15,2013-01-02 23:52:00,
2013-01-02 15:58:00,54.6,37.3,30.11,North,360,0.0,0.0,52,0.00,,,0.00,151,Wunderground v.1.15,2013-01-02 23:58:00,
2013-01-02 16:04:00,54.2,36.5,30.11,North,355,0.0,2.0,51,0.00,,,0.00,72,Wunderground v.1.15,2013-01-03 00:04:00,
2013-01-02 16:10:00,53.8,36.1,30.11,North,355,0.0,0.0,51,0.00,,,0.00,83,Wunderground v.1.15,2013-01-03 00:10:00,
2013-01-02 16:16:00,53.6,34.4,30.11,North,355,0.0,0.0,48,0.00,,,0.00,65,Wunderground v.1.15,2013-01-03 00:16:00,
2013-01-02 16:22:00,53.2,35.0,30.11,North,355,0.0,0.0,50,0.00,,,0.00,26,Wunderground v.1.15,2013-01-03 00:22:00,
2013-01-02 16:28:00,52.6,34.5,30.11,North,355,0.0,0.0,50,0.00,,,0.00,44,Wunderground v.1.15,2013-01-03 00:28:00,
2013-01-02 16:34:00,52.0,33.9,30.11,North,355,0.0,0.0,50,0.00,,,0.00,18,Wunderground v.1.15,2013-01-03 00:34:00,
2013-01-02 16:40:00,51.4,33.4,30.11,North,355,0.0,0.0,50,0.00,,,0.00,14,Wunderground v.1.15,2013-01-03 00:40:00,
2013-01-02 16:46:00,50.9,33.4,30.11,North,355,0.0,0.0,51,0.00,,,0.00,12,Wunderground v.1.15,2013-01-03 00:46:00,
2013-01-02 16:52:00,50.3,33.3,30.11,North,355,0.0,0.0,52,0.00,,,0.00,9,Wunderground v.1.15,2013-01-03 00:52:00,
2013-01-02 16:58:00,49.8,33.3,30.10,North,355,0.0,0.0,53,0.00,,,0.00,5,Wunderground v.1.15,2013-01-03 00:58:00,
2013-01-02 17:04:00,49.2,33.7,30.10,North,355,0.0,3.0,55,0.00,,,0.00,0,Wunderground v.1.15,2013-01-03 01:04:00,
2013-01-02 17:10:00,48.5,33.5,30.10,North,355,0.0,0.0,56,0.00,,,0.00,0,Wunderground v.1.15,2013-01-03 01:10:00,
2013-01-02 17:16:00,47.8,33.3,30.10,North,355,0.0,0.0,57,0.00,,,0.00,0,Wunderground v.1.15,2013-01-03 01:16:00,
2013-01-02 17:22:00,47.1,33.5,30.10,North,355,0.0,0.0,59,0.00,,,0.00,0,Wunderground v.1.15,2013-01-03 01:22:00,
2013-01-02 17:28:00,46.4,33.3,30.10,North,355,0.0,0.0,60,0.00,,,0.00,0,Wunderground v.1.15,2013-01-03 01:28:00,
2013-01-02 17:34:00,45.6,33.3,30.10,North,355,0.0,0.0,62,0.00,,,0.00,0,Wunderground v.1.15,2013-01-03 01:34:00,
2013-01-02 17:40:00,45.0,33.2,30.10,North,355,0.0,0.0,63,0.00,,,0.00,0,Wunderground v.1.15,2013-01-03 01:40:00,
2013-01-02 17:46:00,44.4,33.0,30.11,North,355,0.0,0.0,64,0.00,,,0.00,0,Wunderground v.1.15,2013-01-03 01:46:00,
2013-01-02 17:52:00,43.9,33.3,30.11,North,355,0.0,0.0,66,0.00,,,0.00,0,Wunderground v.1.15,2013-01-03 01:52:00,
2013-01-02 17:58:00,43.5,33.3,30.11,North,355,0.0,0.0,67,0.00,,,0.00,0,Wunderground v.1.15,2013-01-03 01:58:00,
2013-01-02 18:04:00,43.1,33.3,30.11,North,355,0.0,1.0,68,0.00,,,0.00,0,Wunderground v.1.15,2013-01-03 02:04:00,
2013-01-02 18:10:00,42.6,33.1,30.11,North,355,0.0,0.0,69,0.00,,,0.00,0,Wunderground v.1.15,2013-01-03 02:10:00,
2013-01-02 18:16:00,42.2,32.8,30.11,North,355,0.0,0.0,69,0.00,,,0.00,0,Wunderground v.1.15,2013-01-03 02:16:00,
2013-01-02 18:22:00,41.8,32.7,30.11,North,355,0.0,0.0,70,0.00,,,0.00,0,Wunderground v.1.15,2013-01-03 02:22:00,
2013-01-02 18:28:00,41.4,32.7,30.11,North,355,0.0,0.0,71,0.00,,,0.00,0,Wunderground v.1.15,2013-01-03 02:28:00,
2013-01-02 18:34:00,41.1,32.8,30.10,North,355,0.0,0.0,72,0.00,,,0.00,0,Wunderground v.1.15,2013-01-03 02:34:00,
2013-01-02 18:40:00,40.7,32.4,30.10,North,355,0.0,0.0,72,0.00,,,0.00,0,Wunderground v.1.15,2013-01-03 02:40:00,
2013-01-02 18:46:00,40.5,32.5,30.10,North,355,0.0,0.0,73,0.00,,,0.00,0,Wunderground v.1.15,2013-01-03 02:46:00,
2013-01-02 18:52:00,40.2,32.2,30.10,North,355,0.0,0.0,73,0.00,,,0.00,0,Wunderground v.1.15,2013-01-03 02:52:00,
2013-01-02 18:58:00,39.8,32.2,30.10,North,355,0.0,0.0,74,0.00,,,0.00,0,Wunderground v.1.15,2013-01-03 02:58:00,
2013-01-02 19:04:00,39.5,32.2,30.09,North,355,0.0,0.0,75,0.00,,,0.00,0,Wunderground v.1.15,2013-01-03 03:04:00,
2013-01-02 19:10:00,39.1,32.2,30.10,North,355,0.0,0.0,76,0.00,,,0.00,0,Wunderground v.1.15,2013-01-03 03:10:00,
2013-01-02 19:16:00,38.9,32.0,30.10,North,355,0.0,0.0,76,0.00,,,0.00,0,Wunderground v.1.15,2013-01-03 03:16:00,
2013-01-02 19:22:00,38.8,32.2,30.10,North,355,0.0,0.0,77,0.00,,,0.00,0,Wunderground v.1.15,2013-01-03 03:22:00,
2013-01-02 19:28:00,38.7,32.4,30.10,North,355,0.0,0.0,78,0.00,,,0.00,0,Wunderground v.1.15,2013-01-03 03:28:00,
2013-01-02 19:36:00,38.3,32.0,30.10,North,355,0.0,0.0,78,0.00,,,0.00,0,Wunderground v.1.15,2013-01-03 03:36:00,
2013-01-02 19:42:00,38.1,32.2,30.10,North,355,0.0,0.0,79,0.00,,,0.00,0,Wunderground v.1.15,2013-01-03 03:42:00,
2013-01-02 19:48:00,38.0,32.1,30.11,North,355,0.0,0.0,79,0.00,,,0.00,0,Wunderground v.1.15,2013-01-03 03:48:00,
2013-01-02 19:54:00,37.9,32.3,30.11,NW,316,0.0,0.0,80,0.00,,,0.00,0,Wunderground v.1.15,2013-01-03 03:54:00,
2013-01-02 20:00:00,37.9,32.3,30.11,NW,316,0.0,0.0,80,0.00,,,0.00,0,Wunderground v.1.15,2013-01-03 04:00:00,
2013-01-02 20:06:00,37.8,32.2,30.11,NW,316,0.0,0.0,80,0.00,,,0.00,0,Wunderground v.1.15,2013-01-03 04:06:00,
2013-01-02 20:12:00,37.6,32.0,30.11,NW,316,0.0,0.0,80,0.00,,,0.00,0,Wunderground v.1.15,2013-01-03 04:12:00,
2013-01-02 20:18:00,37.4,31.8,30.11,NW,316,0.0,0.0,80,0.00,,,0.00,0,Wunderground v.1.15,2013-01-03 04:18:00,
2013-01-02 20:24:00,37.2,31.9,30.11,NW,316,0.0,0.0,81,0.00,,,0.00,0,Wunderground v.1.15,2013-01-03 04:24:00,
2013-01-02 20:30:00,37.0,31.7,30.11,NW,316,0.0,0.0,81,0.00,,,0.00,0,Wunderground v.1.15,2013-01-03 04:30:00,
2013-01-02 20:36:00,36.7,31.4,30.11,NW,316,0.0,0.0,81,0.00,,,0.00,0,Wunderground v.1.15,2013-01-03 04:36:00,
2013-01-02 20:42:00,36.4,31.4,30.11,NW,316,0.0,0.0,82,0.00,,,0.00,0,Wunderground v.1.15,2013-01-03 04:42:00,
2013-01-02 20:48:00,36.2,31.2,30.11,NW,316,0.0,0.0,82,0.00,,,0.00,0,Wunderground v.1.15,2013-01-03 04:48:00,
2013-01-02 20:54:00,35.9,31.2,30.11,NW,316,0.0,0.0,83,0.00,,,0.00,0,Wunderground v.1.15,2013-01-03 04:54:00,
2013-01-02 21:02:00,35.6,30.9,30.12,NW,316,0.0,5.0,83,0.00,,,0.00,0,Wunderground v.1.15,2013-01-03 05:02:00,
2013-01-02 21:06:00,35.5,30.8,30.12,NW,316,0.0,5.0,83,0.00,,,0.00,0,Wunderground v.1.15,2013-01-03 05:06:00,
2013-01-02 21:10:00,35.4,31.0,30.12,NW,316,0.0,0.0,84,0.00,,,0.00,0,Wunderground v.1.15,2013-01-03 05:10:00,
2013-01-02 21:14:00,35.4,31.0,30.12,NW,316,0.0,0.0,84,0.00,,,0.00,0,Wunderground v.1.15,2013-01-03 05:14:00,
2013-01-02 21:20:00,35.2,30.9,30.12,NW,316,0.0,0.0,84,0.00,,,0.00,0,Wunderground v.1.15,2013-01-03 05:20:00,
2013-01-02 21:26:00,35.1,30.8,30.12,NW,316,0.0,0.0,84,0.00,,,0.00,0,Wunderground v.1.15,2013-01-03 05:26:00,
2013-01-02 21:32:00,35.0,30.9,30.12,NW,316,0.0,0.0,85,0.00,,,0.00,0,Wunderground v.1.15,2013-01-03 05:32:00,
2013-01-02 21:38:00,34.8,30.8,30.12,NW,316,0.0,0.0,85,0.00,,,0.00,0,Wunderground v.1.15,2013-01-03 05:38:00,
2013-01-02 21:44:00,34.8,30.8,30.12,NW,316,0.0,0.0,85,0.00,,,0.00,0,Wunderground v.1.15,2013-01-03 05:44:00,
2013-01-02 21:50:00,34.9,30.8,30.13,NW,316,0.0,0.0,85,0.00,,,0.00,0,Wunderground v.1.15,2013-01-03 05:50:00,
2013-01-02 21:56:00,34.9,30.8,30.13,NW,316,0.0,0.0,85,0.00,,,0.00,0,Wunderground v.1.15,2013-01-03 05:56:00,
2013-01-02 22:02:00,34.8,30.8,30.13,NW,316,0.0,0.0,85,0.00,,,0.00,0,Wunderground v.1.15,2013-01-03 06:02:00,
2013-01-02 22:08:00,34.7,30.7,30.13,NW,316,0.0,0.0,85,0.00,,,0.00,0,Wunderground v.1.15,2013-01-03 06:08:00,
2013-01-02 22:14:00,34.5,30.5,30.13,NW,316,0.0,0.0,85,0.00,,,0.00,0,Wunderground v.1.15,2013-01-03 06:14:00,
2013-01-02 22:20:00,34.2,30.4,30.13,NW,316,0.0,0.0,86,0.00,,,0.00,0,Wunderground v.1.15,2013-01-03 06:20:00,
2013-01-02 22:26:00,34.0,30.3,30.13,NW,316,0.0,0.0,86,0.00,,,0.00,0,Wunderground v.1.15,2013-01-03 06:26:00,
2013-01-02 22:32:00,33.9,30.2,30.13,NW,316,0.0,0.0,86,0.00,,,0.00,0,Wunderground v.1.15,2013-01-03 06:32:00,
2013-01-02 22:38:00,33.9,30.2,30.13,NW,316,0.0,0.0,86,0.00,,,0.00,0,Wunderground v.1.15,2013-01-03 06:38:00,
2013-01-02 22:44:00,33.7,30.0,30.13,NW,316,0.0,0.0,86,0.00,,,0.00,0,Wunderground v.1.15,2013-01-03 06:44:00,
2013-01-02 22:50:00,33.4,29.7,30.13,NW,316,0.0,0.0,86,0.00,,,0.00,0,Wunderground v.1.15,2013-01-03 06:50:00,
2013-01-02 22:56:00,33.3,29.6,30.13,NW,316,0.0,0.0,86,0.00,,,0.00,0,Wunderground v.1.15,2013-01-03 06:56:00,
2013-01-02 23:02:00,33.2,29.8,30.13,NW,316,0.0,3.0,87,0.00,,,0.00,0,Wunderground v.1.15,2013-01-03 07:02:00,
2013-01-02 23:08:00,33.2,29.8,30.13,NW,316,0.0,3.0,87,0.00,,,0.00,0,Wunderground v.1.15,2013-01-03 07:08:00,
2013-01-02 23:14:00,33.0,29.6,30.13,NW,316,0.0,0.0,87,0.00,,,0.00,0,Wunderground v.1.15,2013-01-03 07:14:00,
2013-01-02 23:20:00,32.9,29.5,30.13,NW,316,0.0,0.0,87,0.00,,,0.00,0,Wunderground v.1.15,2013-01-03 07:20:00,
2013-01-02 23:26:00,32.7,29.3,30.13,NW,316,0.0,0.0,87,0.00,,,0.00,0,Wunderground v.1.15,2013-01-03 07:26:00,
2013-01-02 23:32:00,32.5,29.1,30.13,NW,316,0.0,0.0,87,0.00,,,0.00,0,Wunderground v.1.15,2013-01-03 07:32:00,
2013-01-02 23:38:00,32.4,29.0,30.14,NW,316,0.0,0.0,87,0.00,,,0.00,0,Wunderground v.1.15,2013-01-03 07:38:00,
2013-01-02 23:44:00,32.3,28.9,30.14,NW,316,0.0,0.0,87,0.00,,,0.00,0,Wunderground v.1.15,2013-01-03 07:44:00,
2013-01-02 23:50:00,32.2,28.8,30.14,NW,316,0.0,0.0,87,0.00,,,0.00,0,Wunderground v.1.15,2013-01-03 07:50:00,
2013-01-02 23:56:00,32.3,28.9,30.14,NW,316,0.0,0.0,87,0.00,,,0.00,0,Wunderground v.1.15,2013-01-03 07:56:00,